Nantucket, MA

10:29 AM EST on January 17, 2017 (GMT -0500)
Nantucket Memorial

Weather History for KACK - October, 2012

Change the Weather History Date:

Tuesday, October 9, 2012

  Actual Average Record
Temperature  
Mean Temperature 55 °F -  
Max Temperature 57 °F 63 °F 82 °F (2011)
Min Temperature 53 °F 47 °F 10 °F (1997)
Degree Days  
Heating Degree Days 10    
Growing Degree Days 5 (Base 50)    
Moisture  
Dew Point 53 °F    
Average Humidity 94    
Maximum Humidity 100    
Minimum Humidity 82    
Precipitation  
Precipitation 0.35 in - - ()
Sea Level Pressure  
Sea Level Pressure 30.17 in    
Wind  
Wind Speed 12 mph (ENE)    
Max Wind Speed 21 mph    
Max Gust Speed 30 mph    
Visibility 7 miles    
Events Rain    
Averages and records for this station are not official NWS values.
T = Trace of Precipitation, MM = Missing Value Source: NWS Daily Summary

Daily Weather History Graph

Daily Weather History Graph

Search for Another Location

Airport or City:

Trip Planner

Search our weather history database for the weather conditions in past years. The results will help you decide how hot, cold, wet, or windy it might be!

Date:

Astronomy

Oct. 09, 2012 Rise Set
Actual Time 6:45 AM EDT 6:08 PM EDT
Civil Twilight 6:18 AM EDT 6:35 PM EDT
Nautical Twilight 5:46 AM EDT 7:07 PM EDT
Astronomical Twilight 5:14 AM EDT 7:39 PM EDT
Moon 12:15 AM EDT (10/9) 2:36 PM EDT (10/9)
Length of Visible Light 12h 17m
Length of Day
11h 22m
Last Quarter, 37% of the Moon is Illuminated
Oct 9
Last Quarter
Oct 15
New
Oct 21
First Quarter
Oct 29
Full
Nov 6
Last Quarter

Hourly Weather History & Observations

Time (EDT) Temp. Dew Point Humidity Pressure Visibility Wind Dir Wind Speed Gust Speed Precip Events Conditions
12:02 AM 53.6 °F 48.2 °F 82% 30.26 in 10.0 mi ENE 6.9 mph - N/A   Mostly Cloudy
12:53 AM 54.0 °F 51.1 °F 90% 30.27 in 10.0 mi East 10.4 mph - 0.01 in Rain Light Rain
1:13 AM 53.6 °F 51.8 °F 94% 30.28 in 10.0 mi East 10.4 mph - 0.01 in Rain Light Rain
1:53 AM 53.1 °F 52.0 °F 96% 30.27 in 7.0 mi East 8.1 mph - 0.07 in Rain Light Rain
2:17 AM 53.6 °F 51.8 °F 94% 30.27 in 6.0 mi East 5.8 mph - 0.05 in Rain Rain
2:53 AM 53.1 °F 52.0 °F 96% 30.25 in 6.0 mi East 8.1 mph - 0.12 in Rain Rain
3:18 AM 53.6 °F 51.8 °F 94% 30.25 in 5.0 mi East 8.1 mph - 0.06 in Rain Rain
3:40 AM 53.6 °F 51.8 °F 94% 30.21 in 6.0 mi East 11.5 mph - 0.10 in Rain Rain
4:03 AM 53.6 °F 51.8 °F 94% 30.18 in 5.0 mi East 13.8 mph 20.7 mph 0.02 in Rain Rain
4:06 AM 53.6 °F 51.8 °F 94% 30.18 in 6.0 mi East 12.7 mph 20.7 mph 0.03 in Rain Rain
4:13 AM 53.6 °F 51.8 °F 94% 30.19 in 8.0 mi East 16.1 mph 21.9 mph 0.03 in Rain Light Rain
4:53 AM 53.1 °F 53.1 °F 100% 30.20 in 6.0 mi ENE 8.1 mph - 0.07 in Rain Rain
5:06 AM 53.6 °F 51.8 °F 94% 30.19 in 8.0 mi East 13.8 mph 20.7 mph 0.01 in Rain Light Rain
5:10 AM 53.6 °F 51.8 °F 94% 30.19 in 9.0 mi East 15.0 mph 20.7 mph 0.01 in Rain Light Rain
5:53 AM 54.0 °F 53.1 °F 97% 30.19 in 7.0 mi East 10.4 mph - 0.05 in Rain Light Rain
6:09 AM 53.6 °F 53.6 °F 100% 30.19 in 9.0 mi East 11.5 mph - 0.00 in Rain Light Rain
6:19 AM 53.6 °F 53.6 °F 100% 30.19 in 5.0 mi ENE 11.5 mph 24.2 mph 0.01 in Rain Light Rain
6:53 AM 54.0 °F 52.0 °F 93% 30.20 in 7.0 mi ENE 12.7 mph - 0.01 in Rain Light Rain
7:29 AM 53.6 °F 51.8 °F 94% 30.20 in 10.0 mi NE 13.8 mph 21.9 mph 0.00 in   Overcast
7:53 AM 54.0 °F 51.1 °F 90% 30.21 in 10.0 mi ENE 12.7 mph - 0.00 in   Overcast
8:53 AM 55.0 °F 52.0 °F 89% 30.20 in 9.0 mi ENE 15.0 mph 20.7 mph N/A   Overcast
9:53 AM 57.0 °F 53.1 °F 87% 30.20 in 10.0 mi NE 10.4 mph - N/A   Overcast
10:25 AM 57.2 °F 53.6 °F 88% 30.19 in 10.0 mi NE 13.8 mph 21.9 mph 0.01 in   Overcast
10:53 AM 57.0 °F 54.0 °F 89% 30.19 in 10.0 mi NE 13.8 mph - 0.01 in   Overcast
11:11 AM 57.2 °F 53.6 °F 88% 30.18 in 10.0 mi NE 12.7 mph - N/A   Overcast
11:39 AM 57.2 °F 53.6 °F 88% 30.18 in 5.0 mi NE 13.8 mph 21.9 mph N/A   Overcast
11:43 AM 55.4 °F 53.6 °F 94% 30.18 in 2.5 mi NE 13.8 mph - N/A   Overcast
11:53 AM 55.9 °F 55.0 °F 97% 30.18 in 2.5 mi NE 13.8 mph - N/A   Overcast
12:53 PM 55.9 °F 55.0 °F 97% 30.16 in 2.5 mi NE 17.3 mph 24.2 mph 0.00 in Rain Light Rain
1:53 PM 55.9 °F 55.0 °F 97% 30.14 in 3.0 mi NE 18.4 mph 23.0 mph 0.01 in   Overcast
2:53 PM 55.9 °F 55.0 °F 97% 30.13 in 3.0 mi NE 20.7 mph 25.3 mph 0.00 in Rain Light Rain
3:53 PM 55.0 °F 54.0 °F 96% 30.13 in 3.0 mi NE 17.3 mph 26.5 mph 0.00 in   Overcast
4:53 PM 55.0 °F 54.0 °F 96% 30.12 in 9.0 mi NE 18.4 mph 25.3 mph N/A   Overcast
5:53 PM 55.0 °F 53.1 °F 93% 30.12 in 10.0 mi NE 20.7 mph 29.9 mph N/A   Overcast
6:53 PM 55.0 °F 53.1 °F 93% 30.11 in 10.0 mi NE 19.6 mph 28.8 mph N/A   Overcast
7:53 PM 55.9 °F 54.0 °F 93% 30.10 in 10.0 mi NE 19.6 mph 25.3 mph N/A   Overcast
8:53 PM 55.9 °F 54.0 °F 93% 30.10 in 10.0 mi NE 17.3 mph 26.5 mph N/A   Overcast
9:00 PM 55.4 °F 53.6 °F 94% 30.09 in 10.0 mi NE 16.1 mph 23.0 mph N/A   Overcast
9:26 PM 57.2 °F 53.6 °F 88% 30.10 in 10.0 mi NE 17.3 mph 23.0 mph N/A   Overcast
9:53 PM 57.0 °F 55.0 °F 93% 30.11 in 10.0 mi NE 13.8 mph - N/A   Overcast
10:31 PM 57.2 °F 55.4 °F 94% 30.10 in 10.0 mi NNE 15.0 mph - N/A   Overcast
10:53 PM 55.9 °F 55.9 °F 100% 30.10 in 4.0 mi NNE 10.4 mph - N/A   Overcast
11:26 PM 55.4 °F 55.4 °F 100% 30.10 in 2.5 mi NNE 10.4 mph - N/A   Overcast
11:53 PM 55.9 °F 55.9 °F 100% 30.09 in 2.5 mi NNE 11.5 mph - 0.00 in Rain Light Rain